OneWeb SL0228

operational
NORAD ID: 48780 Int'l Des: 2021-045 Owner: ONEWEBN Country: UK Constellation: oneweb
LEOCIRCULARPOLARONEWEB_TYPE

Über OneWeb SL0228

Beschreibung wird geladen...

Live-Position

3D-Globus wird geladen...

Nächste Überflüge

Höhenverlauf

Altitude vs Time

uPlot chart will show altitude changes over time

Zweizeiliger Elementsatz

1 48780U 21045P 25304.77106792 .00000203 00000-0 50430-3 0 9992
2 48780 87.8969 304.7491 0001928 94.4846 265.6505 13.15549727214290
Epoch: 31. Okt. 2025 • Age: 26 hours

Aktueller Status

Höhe 1203.6 km
Geschwindigkeit 7.25 km/s
Subsatellitenpunkt 15.50°N, 38.33°W
Startdatum 28. Mai 2021
Alter 4.4 years
Typ internet

Technische Details

Klassifizierung Payload
Masse 148.00 kg
Trockenmasse 140.00 kg
Gesamtmasse 148.00 kg
Länge 1.30 m
Durchmesser 1.00 m
Spannweite 5.00 m
Form Trapezoid+2 pan
Hersteller ONEWUS
Bus-Typ ARROW
Phasenstatus In Orbit
Besitzer/Staat ONEWEBN/UK

Große Konstellationen

Loading constellations...